Zurück zum Katalog

BREEZE-M DEB

TANK

AktivHEO
NORAD 28395·DEBRIS·🇷🇺 Russia

Gestartet Aug 4, 2004 von Baikonur Cosmodrome

Loading…

Nächste Überflüge (nächste 24 Stunden)

TLE

AktuellSource: Space-Track

Epoche: Sep 14, 2026, 06:25 UTC

1 28395U 04031C   26257.26801793  .00008145  00000-0  11466-2 0  9991
2 28395  49.4439   9.5839 5137143 134.3312 281.5094  5.40825962409516

Verfolge BREEZE-M DEB in Echtzeit mit AllMySat

Download on the App Store